Regional Weather Roundup
Issued by NWS

Home | Current Version | Previous Version | Text Only | Print | Product List | Glossary Off
Versions: 1 2 3 4 5 6 7 8 9 10 11 12 13 14 15 16 17 18 19 20 21 22 23 24 25 26 27 28 29 30 31 32 33 34 35 36 37 38 39 40 41 42 43 44 45 46 47 48 49 50

000
ASUS43 KBIS 250210
RWRND
NORTH DAKOTA REGIONAL WEATHER ROUNDUP
NATIONAL WEATHER SERVICE EASTERN NORTH DAKOTA/GRAND FORKS ND
900 PM CDT THU MAY 24 2018

  NOTE: "FAIR" INDICATES FEW OR NO CLOUDS BELOW 12,000 FEET WITH NO
  SIGNIFICANT WEATHER AND/OR OBSTRUCTIONS TO VISIBILITY.

NDZ001>003-009>011-017-250300-
...NORTHWEST NORTH DAKOTA...

CITY           SKY/WX    TMP DP  RH WIND       PRES   REMARKS
WILLISTON      FAIR      75  57  53 SW8       29.73S
MINOT          FAIR      76  55  48 W10       29.71R
MINOT AFB      FAIR      74  56  54 W13       29.69S
$$

NDZ018>021-031>035-040>046-250300-
...SOUTHWEST NORTH DAKOTA...

CITY           SKY/WX    TMP DP  RH WIND       PRES   REMARKS
BISMARCK       FAIR      78  54  43 W9        29.75S
DICKINSON      FAIR      72  53  51 W12       29.79S
GARRISON         N/A     75  53  46 W13       29.73S
HETTINGER      FAIR      69  55  60 W9        29.85S
$$

NDZ004>008-012>016-024-026-027-054-250300-
...NORTHEAST NORTH DAKOTA...

CITY           SKY/WX    TMP DP  RH WIND       PRES   REMARKS
GRAND FORKS    MOCLDY    84  55  36 SW14      29.64S
GRAND FORKS AF FAIR      84  53  34 W13G21    29.66R
DEVILS LAKE    MOCLDY    76  56  49 NW15      29.70R
$$

NDZ022-023-025-028>030-036>039-047>053-250300-
...SOUTHEAST NORTH DAKOTA...

CITY           SKY/WX    TMP DP  RH WIND       PRES   REMARKS
JAMESTOWN      FAIR      78  56  46 W10       29.72S
FARGO          FAIR      84  61  45 S15       29.69S
WAHPETON       FAIR      82  55  39 S9        29.74S
$$




USA.gov is the U.S. government's official web portal to all federal, state and local government web resources and services.